Pila Airport

Jump to: basic info | weather | runways | comments

Related pages: nearby airports | nearby navaids | notams | map

Basic information (top)

Codes: EPPI
Location: lon 53.169998, lat 16.712500, elev 259 ft / 79 m msl
Status: small_airport

Weather (top)

Current conditions for Poznań-Ławica Airport 45nm (84km) S (rec'd 2014/09/02 04:00Z):

EPPO 020400Z 05005KT 9999 -RA SCT033 13/12 Q1018

Airport forecast for Poznań-Ławica Airport 45nm (84km) S (rec'd 2014/09/01 00:33Z):

TAF EPPO 012330Z 0200/0224 04007KT 9999 SCT030 PROB30 
      TEMPO 0200/0206 5000 RA BR BKN005 BKN015

Runways (top)

03/21: 7,876 x 195 ft (2,401 x 59 m) — other (PEM) — lighted

Latest comments (top)

No comments yet for Pila Airport

More... (top)

See also NOTAMs and nearby airports and navaids, or visit the Pila Airport page at the main OurAirports website..